TimeMST,TemperatureF,Dew PointF,Humidity,Sea Level PressureIn,VisibilityMPH,Wind Direction,Wind SpeedMPH,Gust SpeedMPH,PrecipitationIn,Events,Conditions,WindDirDegrees,DateUTC
1:30 AM,16.0,10.9,81,30.35,1.2,North,19.6,-,0.01,Snow,Light Snow,360,2013-11-22 08:30:00
1:53 AM,16.0,10.9,81,30.39,1.0,North,18.4,-,0.02,Snow,Light Snow,10,2013-11-22 08:53:00
2:03 AM,16.0,12.0,84,30.35,0.8,North,17.3,-,0.01,Snow,Light Snow,360,2013-11-22 09:03:00
2:10 AM,16.0,12.0,84,30.35,0.5,North,16.1,-,0.02,Fog-Snow,Snow,10,2013-11-22 09:10:00
2:27 AM,17.1,12.0,81,30.36,1.0,NNE,13.8,-,0.03,Snow,Light Snow,20,2013-11-22 09:27:00
2:46 AM,17.1,12.9,84,30.37,0.8,North,13.8,-,0.05,Snow,Light Snow,10,2013-11-22 09:46:00
2:53 AM,17.1,12.9,84,30.39,0.8,North,11.5,-,0.05,Snow,Light Snow,360,2013-11-22 09:53:00
3:02 AM,17.1,12.9,84,30.38,1.0,NNE,11.5,-,0.01,Snow,Light Snow,20,2013-11-22 10:02:00
3:37 AM,17.1,12.0,81,30.39,2.0,NNE,13.8,20.7,0.02,Snow,Light Snow,20,2013-11-22 10:37:00
3:48 AM,17.6,10.4,73,30.38,5.0,North,12.7,-,0.02,,Overcast,10,2013-11-22 10:48:00
3:53 AM,18.0,10.9,74,30.40,7.0,North,13.8,-,0.02,,Overcast,10,2013-11-22 10:53:00
4:09 AM,18.0,12.0,78,30.39,1.8,NNE,15.0,-,0.00,Snow,Light Snow,20,2013-11-22 11:09:00
4:51 AM,19.4,12.2,74,30.40,2.5,NNE,12.7,-,0.02,Snow,Light Snow,20,2013-11-22 11:51:00
4:53 AM,19.0,12.0,74,30.44,2.5,NNE,11.5,-,0.02,Snow,Light Snow,30,2013-11-22 11:53:00
4:59 AM,19.0,12.9,77,30.41,3.0,NNE,10.4,-,0.00,Snow,Light Snow,20,2013-11-22 11:59:00
5:10 AM,19.0,12.9,77,30.41,2.0,NNE,9.2,18.4,0.00,Snow,Light Snow,20,2013-11-22 12:10:00
5:24 AM,19.0,12.9,77,30.41,3.0,NNE,8.1,-,0.00,Snow,Light Snow,20,2013-11-22 12:24:00
5:53 AM,19.0,12.9,77,30.48,5.0,NNE,8.1,-,0.00,Snow,Light Snow,20,2013-11-22 12:53:00
6:53 AM,21.0,12.0,68,30.51,9.0,North,10.4,-,0.00,,Overcast,350,2013-11-22 13:53:00
7:53 AM,23.0,15.1,72,30.52,10.0,North,3.5,-,0.01,,Overcast,10,2013-11-22 14:53:00
8:53 AM,25.0,15.1,66,30.53,10.0,North,8.1,-,N/A,,Overcast,350,2013-11-22 15:53:00
9:53 AM,26.1,15.1,63,30.56,10.0,North,6.9,-,N/A,,Overcast,360,2013-11-22 16:53:00
10:53 AM,28.0,16.0,61,30.55,10.0,North,8.1,-,N/A,,Overcast,360,2013-11-22 17:53:00
11:53 AM,28.9,18.0,64,30.52,10.0,North,6.9,-,N/A,,Overcast,10,2013-11-22 18:53:00
12:53 PM,30.0,18.0,61,30.41,10.0,NNE,3.5,-,N/A,,Overcast,20,2013-11-22 19:53:00
1:53 PM,30.9,19.9,64,30.51,10.0,ENE,9.2,-,N/A,,Overcast,60,2013-11-22 20:53:00
2:53 PM,30.0,19.0,64,30.51,10.0,ENE,6.9,-,0.00,,Overcast,70,2013-11-22 21:53:00
3:53 PM,28.9,19.9,69,30.51,10.0,ESE,4.6,-,N/A,,Overcast,110,2013-11-22 22:53:00
4:53 PM,30.0,19.0,64,30.50,10.0,Calm,Calm,-,N/A,,Overcast,0,2013-11-22 23:53:00
5:53 PM,28.9,21.0,72,30.52,10.0,North,4.6,-,N/A,,Overcast,360,2013-11-23 00:53:00
6:53 PM,28.0,19.9,72,30.51,10.0,North,4.6,-,N/A,,Overcast,360,2013-11-23 01:53:00
7:53 PM,28.9,21.0,72,30.50,10.0,NNE,4.6,-,N/A,,Overcast,30,2013-11-23 02:53:00
8:53 PM,30.0,21.9,72,30.49,10.0,North,4.6,-,N/A,,Overcast,10,2013-11-23 03:53:00
9:17 PM,30.9,21.9,69,30.43,10.0,North,5.8,-,N/A,,Overcast,360,2013-11-23 04:17:00
9:53 PM,30.0,21.9,72,30.50,10.0,North,6.9,-,N/A,,Overcast,360,2013-11-23 04:53:00
10:53 PM,30.0,21.9,72,30.51,10.0,NNW,6.9,-,N/A,,Overcast,340,2013-11-23 05:53:00
11:53 PM,30.0,23.0,75,30.49,10.0,North,10.4,-,N/A,,Overcast,10,2013-11-23 06:53:00